Printer-friendly version

IAU Minor Planet Center

Minor Planet Center

MPEC 2005-C14 : 2005 CP

The following Minor Planet Electronic Circular may be linked-to from your own Web pages, but must not otherwise be redistributed electronically.


Read MPEC 2005-C13 Read MPEC 2005-C15


M.P.E.C. 2005-C14                                Issued 2005 Feb. 3, 13:03 UT

     The Minor Planet Electronic Circulars contain information on unusual
         minor planets and routine data on comets.  They are published
   on behalf of Commission 20 of the International Astronomical Union by the
          Minor Planet Center, Smithsonian Astrophysical Observatory,
                          Cambridge, MA 02138, U.S.A.

                  Supported in part by the Brinson Foundation
             Prepared using the Tamkin Foundation Computer Network

                              MPC@CFA.HARVARD.EDU
          URL http://cfa-www.harvard.edu/iau/mpc.html  ISSN 1523-6714

                                    2005 CP

Observations:
     K05C00P* C2005 02 02.36160 10 29 12.11 +08 11 32.7          19.2   EC014704
     K05C00P  C2005 02 02.37433 10 29 13.30 +08 12 19.4          18.8   EC014704
     K05C00P  C2005 02 02.38827 10 29 14.56 +08 13 11.1          18.8   EC014704
     K05C00P  C2005 02 02.40119 10 29 15.77 +08 13 57.4          19.7   EC014704
     K05C00P  C2005 02 03.28146 10 30 47.46 +09 09 26.9          19.7 R EC014649
     K05C00P  C2005 02 03.28323 10 30 47.62 +09 09 33.5          19.8 R EC014649
     K05C00P  C2005 02 03.28501 10 30 47.78 +09 09 40.3          19.8 R EC014649
     K05C00P  C2005 02 03.28679 10 30 47.94 +09 09 47.7          19.7 R EC014649
     K05C00P 5C2005 02 03.44572 10 31 03.52 +09 20 08.6          19.5 R EC014673
     K05C00P 5C2005 02 03.45127 10 31 04.11 +09 20 31.0                 EC014673
     K05C00P 5C2005 02 03.45532 10 31 04.46 +09 20 47.2                 EC014673
     K05C00P 5C2005 02 03.46042 10 31 04.97 +09 21 05.7                 EC014673

Observer details:
649 Powell Observatory, Louisburg.  Observers R. Fredrick, R. Trentman.
    0.75-m Newtonian reflector + CCD.
673 Table Mountain Observatory, Wrightwood.  Observer J. Young.  0.6-m
    reflector + CCD.
704 Lincoln Laboratory ETS, New Mexico.  Observers M. Blythe, F. Shelly,
    M. Bezpalko, R. Huber, L. Manguso, D. Torres, R. Krack.  Measurers
    J. Stuart, R. Sayer, J. Evans, J. Kommers.  1.0-m f/2.15 reflector + CCD.

Orbital elements:
2005 CP
Epoch 2005 Jan. 30.0 TT = JDT 2453400.5                 MPC
M 322.30875              (2000.0)            P               Q
n   0.48502206     Peri.   72.28608     -0.81693755     +0.53311659
a   1.6043350      Node   139.14832     -0.56741745     -0.81123555
e   0.3733522      Incl.   19.65389     +0.10320117     -0.24017407
P   2.03           H   21.2           G   0.15
From 12 observations 2005 Feb. 2-3.

Ephemeris:
2005 CP                  a,e,i = 1.60, 0.37, 20                  q = 1.0054
Date    TT    R. A. (2000) Decl.     Delta      r     Elong.  Phase     V
2005 01 30    10 23.77   +05 04.4    0.302    1.263   153.9    20.1    20.1
2005 02 09    10 41.85   +16 22.4    0.233    1.211   162.8    13.9    19.2
2005 02 19    11 10.23   +34 10.8    0.191    1.162   153.3    22.5    19.0
2005 03 01    12 04.75   +54 53.3    0.182    1.117   130.3    42.5    19.4
2005 03 11    13 59.70   +69 24.4    0.202    1.078   109.6    60.2    20.0
2005 03 21    16 42.94   +72 32.4    0.235    1.046    95.6    71.4    20.7
2005 03 31    18 27.11   +69 08.9    0.272    1.022    87.1    77.4    21.1
2005 04 10    19 18.30   +64 43.6    0.307    1.009    82.5    80.0    21.4
2005 04 20    19 47.16   +60 33.6    0.335    1.006    80.6    80.2    21.6
2005 04 30    20 06.32   +56 43.5    0.357    1.014    80.8    78.8    21.7
2005 05 10    20 19.95   +53 07.1    0.370    1.032    82.9    76.2    21.8
2005 05 20    20 29.20   +49 30.4    0.375    1.059    86.8    72.5    21.7
2005 05 30    20 34.29   +45 36.6    0.372    1.095    92.5    67.6    21.6
2005 06 09    20 34.74   +41 03.0    0.364    1.137   100.2    61.5    21.5
2005 06 19    20 30.41   +35 17.5    0.352    1.184   110.1    53.7    21.3
2005 06 29    20 21.90   +27 52.0    0.343    1.235   122.4    44.0    21.0
2005 07 09    20 10.56   +18 38.2    0.343    1.288   136.6    32.8    20.8
2005 07 19    19 58.81   +08 16.4    0.360    1.342   150.8    21.7    20.7
2005 07 29    19 49.07   -01 46.8    0.399    1.396   159.9    14.5    20.7
2005 08 08    19 43.02   -10 15.6    0.461    1.451   157.6    15.4    21.2
2005 08 18    19 41.44   -16 41.4    0.544    1.504   148.9    20.3    21.8

Timothy B. Spahr             (C) Copyright 2005 MPC           M.P.E.C. 2005-C14

Read MPEC 2005-C13 Read MPEC 2005-C15


Our Web policy. Index to the CBAT/MPC/ICQ pages.


Valid HTML 4.01!